Weather in Giblitsy

Russia / Ryazan Oblast     54°57′49″N   41°05′26″E
В апреле 2022 года жителям России запретили посещать сайт meteo.paraplan.net по решению Генеральной прокуратуры. Аудитория сайта уменьшилась в 10 раз. Владельцы сайта не видят смысла в поддержке погодного сервера в таких условиях. Сайт будет закрыт в октябре.
temp.,
°C
wind,
m/s
gust,
m/s
humid.,
%
clouds,
%
prec.,
mm/h
press.,
hPa
HPBL,
m
4 october, tue
tue400:00+10sse614810 0.0 1010815
03:00+9sse514835 0.0 1011617
06:00+9sse515820 0.0 1012618
09:00+12sse614705 0.0 1012857
12:00+15sse6126069 0.0 10131548
15:00+15sse61359100 0.1 10121719
18:00+12sse51284100 0.8 10131119
21:00+11s51385100 1.1 1012868
5 october, wed
wed500:00+10s399497 0.1 1013493
03:00+9s41183100 0.2 10131165
06:00+8ssw4984100 0.4 1013966
09:00+8ssw4885100 0.6 10131170
12:00+8ssw6989100 1.1 10141117
15:00+9sw378493 1.3 1014839
18:00+7wsw378971 1.1 1015563
21:00+6w379154 1.1 1015372
6 october, thu
thu600:00+4wsw389791 0.0 1016272
03:00+6w3785100 0.1 1017730
06:00+4w389650 0.0 1017376
09:00+7w368474 0.0 1018514
12:00+9wnw347252 0.0 1018982
15:00+9w2568100 0.1 1019672
18:00+8sw268120 0.0 1019189
21:00+6ssw279592 0.0 1019151
7 october, fri
fri700:00+9ssw31095100 0.1 1017378
03:00+9sw4119655 0.3 1015423
06:00+9wsw4119776 0.0 1015440
09:00+11wnw51187100 0.1 1016624
12:00+13wnw5970100 0.0 10181180
15:00+11w51072100 0.0 10191324
18:00+11w51165100 0.0 10201355
21:00+9w513735 0.0 1022708
8 october, sat
sat800:00+8w411890 0.0 1023441
03:00+6w39978 0.0 1024276
06:00+5wsw269714 0.0 1025140
09:00+9wsw37825 0.0 1025307
12:00+13wsw46615 0.0 1025833
15:00+14sw46585 0.0 10231029
18:00+9ssw388039 0.0 1023155
21:00+8ssw3108846 0.0 1022225